[Iaude] MPEC J286: 2024 JF15 [a=2.33,e=0.51,i=7.5,H=21.6]

mpec at cfa.harvard.edu mpec at cfa.harvard.edu
Sun May 12 20:08:30 EDT 2024


M.P.E.C. 2024-J286                                 Issued 2024 May 13, 00:06 UT

     The Minor Planet Electronic Circulars contain information on unusual
         minor planets, routine data on comets and natural satellites,
         and occasional editorial announcements.  They are published
    on behalf of Division F of the International Astronomical Union by the
          Minor Planet Center, Smithsonian Astrophysical Observatory,
                          Cambridge, MA 02138, U.S.A.
			  
             Prepared using the Tamkin Foundation Computer Network

                              MPC at CFA.HARVARD.EDU
            URL https://www.minorplanetcenter.net/    ISSN 1523-6714

                                   2024 JF15                                    


Observations:
     K24J15F* C2024 05 08.38611314 51 04.451-02 07 27.27         22.53wXEJ286F52
     K24J15F  C2024 05 08.39866314 51 03.421-02 07 26.00         21.79wXEJ286F52
     K24J15F  C2024 05 08.41125314 51 02.387-02 07 24.52         21.72wXEJ286F52
     K24J15F  C2024 05 08.52176914 50 53.343-02 07 11.83         21.75GVEJ286F51
     K24J15F  C2024 05 08.52241414 50 53.289-02 07 11.71         21.74GVEJ286F51
     K24J15F KC2024 05 09.22455514 50 00.557-02 06 00.86               VEJ286V06
     K24J15F KC2024 05 09.22773714 50 00.294-02 06 00.54               VEJ286V06
     K24J15F KC2024 05 09.23091914 50 00.024-02 06 00.32         21.19GVEJ286V06
     K24J15F KC2024 05 09.23410014 49 59.776-02 06 00.00         21.29GVEJ286V06
     K24J15F KC2024 05 10.26580714 48 39.488-02 04 28.49         22.07GVEJ286V06
     K24J15F KC2024 05 10.26739914 48 39.370-02 04 28.27         21.69GVEJ286V06
     K24J15F KC2024 05 10.26899214 48 39.233-02 04 28.13         21.82GVEJ286V06
     K24J15F KC2024 05 10.27058414 48 39.092-02 04 27.66         21.28GVEJ286V06
     K24J15F 1C2024 05 11.94299 14 46 26.53 -02 02 48.9          22.0 VXEJ286033
     K24J15F 1C2024 05 11.94661 14 46 26.22 -02 02 49.0          21.8 VXEJ286033
     K24J15F 1C2024 05 11.95023 14 46 25.92 -02 02 48.2          22.0 VXEJ286033
     K24J15F 1C2024 05 11.95458 14 46 25.54 -02 02 48.0          21.9 VXEJ286033
     K24J15F KC2024 05 12.21298014 46 04.91 -02 02 35.7          21.7 GVEJ286H21
     K24J15F KC2024 05 12.21914414 46 04.37 -02 02 35.4          21.7 GVEJ286H21
     K24J15F 1C2024 05 12.94513 14 45 05.79 -02 02 16.1          21.9 VXEJ286033
     K24J15F 1C2024 05 12.94875 14 45 05.48 -02 02 15.9          21.8 VXEJ286033
     K24J15F 1C2024 05 12.95237 14 45 05.18 -02 02 15.8          21.8 VXEJ286033

Observer details:
033 Karl Schwarzschild Observatory, Tautenburg.  Observers S. Melnikov, C.
    Hogner, F. Ludwig, M. Hartmann, B. Stecklum, C. Heogner.  Measurer B.
    Stecklum.  1.34-m f/3 Schmidt + CCD.
F51 Pan-STARRS 1, Haleakala.  Observers J. Herman, T. Lowe, P. Minguez, A.
    Schultz, I. Smith.  Measurers K. Chambers, T. de Boer, J. Fairlamb, H.
    Gao, M. Huber, C.-C. Lin, E. Magnier, Y. Ramanjooloo, R. Wainscoat, R.
    Weryk.  1.8-m Ritchey-Chretien + CCD.
F52 Pan-STARRS 2, Haleakala.  Observers J. Herman, T. Lowe, P. Minguez, A.
    Schultz, I. Smith.  Measurers K. Chambers, T. de Boer, J. Fairlamb, H.
    Gao, M. Huber, C.-C. Lin, E. Magnier, Y. Ramanjooloo, R. Wainscoat, R.
    Weryk.  1.8-m Ritchey-Chretien + CCD.
H21 Astronomical Research Observatory, Westfield.  Observer R. Holmes.
    Measurers T. Linder, R. Holmes, L. Horn.  1.3-m f/4.0 astrograph + CCD.
V06 Catalina Sky Survey-Kuiper.  Observer H. Groeller.  Measurers T. Beuden,
    V. F. Carvajal, D. Fay, J. B. Fazekas, D. C. Fuls, A. R. Gibbs, A. D.
    Grauer, H. Groeller, J. K. Hogan, R. A. Kowalski, S. M. Larson, G. J.
    Leonard, D. Rankin, R. L. Seaman, F. C. Shelly, K. W. Wierzchos.  1.55-m
    reflector + 1K CCD.

Orbital elements:
2024 JF15                                                Earth MOID = 0.1418 AU
Epoch 2024 Mar. 31.0 TT = JDT 2460400.5                 Veres                   
M 322.62782              (2000.0)            P               Q                  
n   0.27795442     Peri.  217.35545     +0.52981793     +0.83808486             
a   2.3253428      Node    84.98771     -0.74322419     +0.53265822             
e   0.5111947      Incl.    7.49993     -0.40854714     +0.11785156             
P   3.55           H   21.66          G   0.15           U   9                  
Residuals in seconds of arc
240508 F52  0.1-  0.0     240509 V06  0.1-  0.2-    240511 033  0.1-  0.5+
240508 F52  0.1-  0.1-    240510 V06  0.1-  0.2-    240512 H21  0.1+  0.0
240508 F52  0.1-  0.1-    240510 V06  0.1+  0.1-    240512 H21  0.1-  0.0
240508 F51  0.1+  0.0     240510 V06  0.1+  0.0     240512 033  0.1-  0.2-
240508 F51  0.1+  0.1+    240510 V06  0.0   0.3+    240512 033  0.1-  0.1-
240509 V06  0.1-  0.1-    240511 033  0.1+  0.1+    240512 033  0.1+  0.1-
240509 V06  0.2-  0.1-    240511 033  0.0   0.1-
240509 V06  0.3-  0.2-    240511 033  0.1+  0.5+

Ephemeris:
2024 JF15                a,e,i = 2.33, 0.51, 7                   q = 1.1366
Date    TT    R. A. (2000) Decl.     Delta      r    Elong.  Phase     V
2024 04 13    15 12 02.1 -03 50 15   0.7542  1.7099   153.2    15.4    23.1
...
2024 04 28    15 02 35.0 -02 40 11   0.6162  1.6095   164.8     9.5    22.3
...
2024 05 06    14 54 00.8 -02 12 43   0.5590  1.5566   165.7     9.2    22.0
...
2024 05 12    14 46 22.0 -02 02 33   0.5235  1.5174   162.4    11.6    21.9
2024 05 13    14 45 01.4 -02 02 01   0.5182  1.5110   161.6    12.2    21.9
2024 05 14    14 43 40.0 -02 01 52   0.5131  1.5045   160.7    12.8    21.9
...
2024 05 20    14 35 22.5 -02 09 29   0.4856  1.4662   154.9    17.0    21.8
...
2024 05 28    14 24 35.9 -02 45 41   0.4570  1.4165   146.3    23.4    21.8
...
2024 06 12    14 09 18.0 -05 25 18   0.4226  1.3291   130.4    35.6    21.9

M. P. C. Staff               (C) Copyright 2024 MPC           M.P.E.C. 2024-J286





More information about the Iaude mailing list